QFA7783 YMAV-YMML

Flight info

Callsign QFA7783
Flight time 0h 23m
Altitude 5000
Route AV5 ML DCT
Aircraft B738/M-SDE2E3FGHIRWXY/LB1

Departure

Time 2026-04-20 00:02
Airport Melbourne Avalon International Airport (YMAV)

Arrival

Time 2026-04-20 00:25
Airport Melbourne Airport (YMML)
Time Latitude Longitude Altitude Speed Heading
2026-04-19 23:33 -38.02728 144.47316 44 ft 0 kts
2026-04-19 23:45 -38.02730 144.47314 44 ft 1 kts
2026-04-19 23:45 -38.02745 144.47313 44 ft 2 kts
2026-04-19 23:46 -38.02760 144.47311 44 ft 2 kts
2026-04-19 23:46 -38.02775 144.47310 44 ft 2 kts 358°
2026-04-19 23:46 -38.02789 144.47316 43 ft 2 kts 326°
2026-04-19 23:46 -38.02800 144.47330 43 ft 2 kts 300°
2026-04-19 23:47 -38.02804 144.47348 43 ft 2 kts 272°
2026-04-19 23:47 -38.02805 144.47366 43 ft 2 kts 275°
2026-04-19 23:47 -38.02806 144.47385 43 ft 2 kts 275°
2026-04-19 23:47 -38.02807 144.47400 43 ft 0 kts 275°
2026-04-19 23:49 -38.02807 144.47395 43 ft 0 kts 270°
2026-04-19 23:49 -38.02821 144.47377 43 ft 6 kts 208°
2026-04-19 23:50 -38.02876 144.47360 42 ft 8 kts 188°
2026-04-19 23:50 -38.02930 144.47351 42 ft 7 kts 188°
2026-04-19 23:50 -38.02983 144.47340 42 ft 7 kts 189°
2026-04-19 23:50 -38.03039 144.47330 42 ft 9 kts 188°
2026-04-19 23:51 -38.03117 144.47304 40 ft 13 kts 206°
2026-04-19 23:51 -38.03193 144.47231 39 ft 13 kts 229°
2026-04-19 23:51 -38.03247 144.47134 39 ft 13 kts 229°
2026-04-19 23:51 -38.03332 144.47057 39 ft 16 kts 198°
2026-04-19 23:52 -38.03434 144.47038 39 ft 13 kts 187°
2026-04-19 23:52 -38.03527 144.47021 39 ft 13 kts 188°
2026-04-19 23:52 -38.03619 144.47006 39 ft 13 kts 187°
2026-04-19 23:52 -38.03720 144.46989 39 ft 15 kts 189°
2026-04-19 23:53 -38.03828 144.46973 39 ft 15 kts 188°
2026-04-19 23:53 -38.03935 144.46954 41 ft 14 kts 187°
2026-04-19 23:53 -38.04043 144.46936 41 ft 15 kts 187°
2026-04-19 23:53 -38.04156 144.46918 42 ft 15 kts 187°
2026-04-19 23:54 -38.04269 144.46898 42 ft 16 kts 188°
2026-04-19 23:54 -38.04384 144.46880 42 ft 17 kts 188°
2026-04-19 23:54 -38.04502 144.46860 42 ft 17 kts 188°
2026-04-19 23:54 -38.04611 144.46840 42 ft 13 kts 197°
2026-04-19 23:55 -38.04642 144.46793 42 ft 3 kts 270°
2026-04-19 23:55 -38.04641 144.46783 42 ft 0 kts 274°
2026-04-20 00:00 -38.04640 144.46756 42 ft 6 kts 275°
2026-04-20 00:01 -38.04629 144.46669 42 ft 11 kts 291°
2026-04-20 00:01 -38.04554 144.46635 42 ft 18 kts
2026-04-20 00:01 -38.04217 144.46690 42 ft 98 kts
2026-04-20 00:02 -38.03267 144.46861 182 ft 166 kts 10°
2026-04-20 00:02 -38.02097 144.47134 1033 ft 179 kts 11°
2026-04-20 00:02 -38.00931 144.47426 2195 ft 175 kts 10°
2026-04-20 00:02 -37.99770 144.47919 3050 ft 187 kts 32°
2026-04-20 00:03 -37.98626 144.48865 3759 ft 213 kts 30°
2026-04-20 00:03 -37.97275 144.49857 4062 ft 226 kts 30°
2026-04-20 00:03 -37.95968 144.50874 4038 ft 218 kts 31°
2026-04-20 00:03 -37.94727 144.51918 4054 ft 208 kts 43°
2026-04-20 00:04 -37.93992 144.53358 4213 ft 191 kts 75°
2026-04-20 00:04 -37.93634 144.55051 4516 ft 208 kts 81°
2026-04-20 00:04 -37.93323 144.56894 4780 ft 215 kts 82°
2026-04-20 00:04 -37.93021 144.58757 4966 ft 219 kts 82°
2026-04-20 00:05 -37.92720 144.60634 4957 ft 217 kts 82°
2026-04-20 00:05 -37.92421 144.62501 4966 ft 216 kts 82°
2026-04-20 00:05 -37.92121 144.64372 4967 ft 216 kts 82°
2026-04-20 00:05 -37.91823 144.66238 4966 ft 217 kts 81°
2026-04-20 00:06 -37.91523 144.68120 4966 ft 216 kts 81°
2026-04-20 00:06 -37.91225 144.69992 4966 ft 216 kts 81°
2026-04-20 00:06 -37.90930 144.71843 4966 ft 216 kts 81°
2026-04-20 00:06 -37.90632 144.73717 4966 ft 216 kts 81°
2026-04-20 00:07 -37.90332 144.75600 4966 ft 216 kts 81°
2026-04-20 00:07 -37.90038 144.77449 4966 ft 216 kts 81°
2026-04-20 00:07 -37.89738 144.79336 4966 ft 216 kts 81°
2026-04-20 00:07 -37.89444 144.81187 4966 ft 216 kts 81°
2026-04-20 00:08 -37.89146 144.83069 4966 ft 216 kts 81°
2026-04-20 00:08 -37.88848 144.84946 4966 ft 216 kts 81°
2026-04-20 00:08 -37.88554 144.86798 4966 ft 216 kts 81°
2026-04-20 00:08 -37.88255 144.88686 4966 ft 216 kts 81°
2026-04-20 00:09 -37.87960 144.90550 4966 ft 216 kts 81°
2026-04-20 00:09 -37.87664 144.92412 4966 ft 216 kts 81°
2026-04-20 00:09 -37.87382 144.94281 4965 ft 216 kts 85°
2026-04-20 00:09 -37.87262 144.96173 4967 ft 214 kts 91°
2026-04-20 00:10 -37.87201 144.98050 4966 ft 214 kts 91°
2026-04-20 00:10 -37.87145 144.99936 4966 ft 214 kts 91°
2026-04-20 00:10 -37.87089 145.01825 4966 ft 214 kts 91°
2026-04-20 00:10 -37.87032 145.03714 4966 ft 214 kts 91°
2026-04-20 00:11 -37.86974 145.05609 4966 ft 214 kts 91°
2026-04-20 00:11 -37.86917 145.07480 4966 ft 214 kts 91°
2026-04-20 00:11 -37.86837 145.09386 4965 ft 218 kts 84°
2026-04-20 00:11 -37.86242 145.11168 4970 ft 223 kts 57°
2026-04-20 00:12 -37.85312 145.12746 4972 ft 224 kts 52°
2026-04-20 00:12 -37.84341 145.14282 4963 ft 223 kts 52°
2026-04-20 00:12 -37.83367 145.15813 4965 ft 223 kts 52°
2026-04-20 00:12 -37.82394 145.17340 4965 ft 224 kts 52°
2026-04-20 00:13 -37.81411 145.18881 4965 ft 224 kts 52°
2026-04-20 00:13 -37.80434 145.20413 4976 ft 223 kts 52°
2026-04-20 00:13 -37.79461 145.21948 4982 ft 224 kts 52°
2026-04-20 00:13 -37.78490 145.23467 4991 ft 224 kts 51°
2026-04-20 00:14 -37.77488 145.24982 4964 ft 224 kts 51°
2026-04-20 00:14 -37.76492 145.26503 4970 ft 223 kts 51°
2026-04-20 00:14 -37.75512 145.28014 4974 ft 224 kts 51°
2026-04-20 00:14 -37.74538 145.29462 4962 ft 223 kts 49°
2026-04-20 00:15 -37.73534 145.30925 4990 ft 224 kts 50°
2026-04-20 00:15 -37.72519 145.32446 4987 ft 224 kts 51°
2026-04-20 00:15 -37.71534 145.33949 4977 ft 224 kts 50°
2026-04-20 00:15 -37.70320 145.35139 4960 ft 222 kts 23°
2026-04-20 00:16 -37.68840 145.35634 4976 ft 217 kts 359°
2026-04-20 00:16 -37.67356 145.35426 4962 ft 213 kts 337°
2026-04-20 00:16 -37.66089 145.34592 4979 ft 204 kts 314°
2026-04-20 00:16 -37.65226 145.33255 4982 ft 195 kts 289°
2026-04-20 00:17 -37.64927 145.31625 4916 ft 187 kts 264°
2026-04-20 00:17 -37.65143 145.30026 4849 ft 185 kts 255°
2026-04-20 00:17 -37.65393 145.28444 4752 ft 185 kts 255°
2026-04-20 00:17 -37.65627 145.26819 4483 ft 192 kts 258°
2026-04-20 00:18 -37.65829 145.25159 4340 ft 189 kts 258°
2026-04-20 00:18 -37.66018 145.23529 4196 ft 188 kts 258°
2026-04-20 00:18 -37.66226 145.21880 3972 ft 190 kts 256°
2026-04-20 00:18 -37.66454 145.20229 3761 ft 191 kts 257°
2026-04-20 00:19 -37.66672 145.18565 3562 ft 192 kts 257°
2026-04-20 00:19 -37.66891 145.16885 3277 ft 197 kts 257°
2026-04-20 00:19 -37.67117 145.15176 3081 ft 197 kts 257°
2026-04-20 00:19 -37.67349 145.13477 2896 ft 196 kts 256°
2026-04-20 00:20 -37.67621 145.11687 2764 ft 222 kts 257°
2026-04-20 00:20 -37.67823 145.09830 2715 ft 207 kts 260°
2026-04-20 00:20 -37.67904 145.08118 2687 ft 184 kts 265°
2026-04-20 00:20 -37.67886 145.06532 2471 ft 174 kts 266°
2026-04-20 00:21 -37.67838 145.05034 2443 ft 173 kts 269°
2026-04-20 00:21 -37.67606 145.03513 2456 ft 177 kts 282°
2026-04-20 00:21 -37.67217 145.02033 2423 ft 179 kts 282°
2026-04-20 00:21 -37.66961 145.00534 2458 ft 171 kts 269°
2026-04-20 00:22 -37.66923 144.99017 2417 ft 171 kts 265°
2026-04-20 00:22 -37.66912 144.97594 2406 ft 156 kts 265°
2026-04-20 00:22 -37.66929 144.96246 2116 ft 153 kts 262°
2026-04-20 00:22 -37.66949 144.94930 1897 ft 139 kts 270°
2026-04-20 00:23 -37.66711 144.93784 1801 ft 138 kts 282°
2026-04-20 00:23 -37.66535 144.92625 1668 ft 131 kts 268°
2026-04-20 00:23 -37.66483 144.91490 1457 ft 129 kts 266°
2026-04-20 00:23 -37.66434 144.90334 1276 ft 131 kts 265°
2026-04-20 00:24 -37.66417 144.89195 1132 ft 131 kts 264°
2026-04-20 00:24 -37.66402 144.88034 975 ft 131 kts 265°
2026-04-20 00:24 -37.66338 144.86891 796 ft 131 kts 268°
2026-04-20 00:24 -37.66282 144.85763 605 ft 126 kts 267°
2026-04-20 00:25 -37.66214 144.84656 418 ft 124 kts 267°
2026-04-20 00:25 -37.66170 144.83786 420 ft 64 kts 274°
2026-04-20 00:25 -37.66145 144.83418 416 ft 33 kts 274°
2026-04-20 00:25 -37.66133 144.83173 414 ft 23 kts 268°
2026-04-20 00:26 -37.66151 144.83000 411 ft 16 kts 252°
2026-04-20 00:26 -37.66198 144.82860 405 ft 17 kts 243°
2026-04-20 00:26 -37.66254 144.82730 399 ft 17 kts 230°
2026-04-20 00:26 -37.66360 144.82683 393 ft 16 kts 169°
2026-04-20 00:27 -37.66437 144.82765 391 ft 14 kts 113°
2026-04-20 00:27 -37.66451 144.82871 393 ft 10 kts 94°
2026-04-20 00:27 -37.66456 144.82953 394 ft 8 kts 95°
2026-04-20 00:27 -37.66461 144.83034 396 ft 9 kts 94°
2026-04-20 00:28 -37.66465 144.83119 397 ft 10 kts 93°
2026-04-20 00:28 -37.66470 144.83209 399 ft 10 kts 94°
2026-04-20 00:28 -37.66476 144.83304 400 ft 10 kts 94°
2026-04-20 00:28 -37.66481 144.83397 402 ft 10 kts 94°
2026-04-20 00:29 -37.66486 144.83493 404 ft 11 kts 93°
2026-04-20 00:29 -37.66492 144.83591 405 ft 10 kts 95°
2026-04-20 00:29 -37.66498 144.83685 407 ft 11 kts 95°
2026-04-20 00:29 -37.66503 144.83792 406 ft 12 kts 94°
2026-04-20 00:30 -37.66510 144.83910 405 ft 13 kts 94°
2026-04-20 00:30 -37.66518 144.84032 402 ft 13 kts 94°
2026-04-20 00:30 -37.66524 144.84152 399 ft 13 kts 93°
2026-04-20 00:30 -37.66530 144.84271 399 ft 12 kts 88°
2026-04-20 00:31 -37.66519 144.84375 400 ft 11 kts 81°
2026-04-20 00:31 -37.66505 144.84491 400 ft 14 kts 82°
2026-04-20 00:31 -37.66491 144.84619 403 ft 13 kts 81°
2026-04-20 00:31 -37.66478 144.84720 405 ft 9 kts 83°
2026-04-20 00:32 -37.66501 144.84782 405 ft 8 kts 153°
2026-04-20 00:32 -37.66546 144.84834 406 ft 9 kts 98°
2026-04-20 00:32 -37.66539 144.84915 408 ft 9 kts 82°
2026-04-20 00:32 -37.66531 144.85002 410 ft 8 kts 99°
2026-04-20 00:33 -37.66573 144.85020 410 ft 8 kts 219°
2026-04-20 00:33 -37.66614 144.84970 409 ft 4 kts 222°
2026-04-20 00:33 -37.66622 144.84959 409 ft 0 kts 223°